This is the latest recevied weather packets stored in our database for station/object OM6ACB-6. If no packets are shown the sender has not sent any weather packets the latest 10 day(s).
| Time | Temp. | Humidity | Pressure | Rain* | Wind** | Luminosity | Snow |
|---|---|---|---|---|---|---|---|
| 1777538447 | 10° C | 28% | 1029.9 hPa | 0 mm | - | - | - |
| 1777537846 | 8.33° C | 28% | 1029.7 hPa | 0 mm | - | - | - |
| 1777537246 | 9.44° C | 28% | 1029.9 hPa | 0 mm | - | - | - |
| 1777536646 | 8.33° C | 28% | 1029.9 hPa | 0 mm | - | - | - |
| 1777536045 | 7.78° C | 29% | 1029.9 hPa | 0 mm | - | - | - |
| 1777535445 | 7.78° C | 29% | 1029.9 hPa | 0 mm | - | - | - |
| 1777534845 | 7.22° C | 29% | 1030 hPa | 0 mm | - | - | - |
| 1777534244 | 7.22° C | 29% | 1030 hPa | 0 mm | - | - | - |
| 1777533644 | 6.67° C | 29% | 1029.9 hPa | 0 mm | - | - | - |
| 1777533044 | 6.67° C | 29% | 1029.8 hPa | 0 mm | - | - | - |
| 1777532443 | 6.67° C | 29% | 1029.8 hPa | 0 mm | - | - | - |
| 1777531843 | 6.11° C | 29% | 1029.7 hPa | 0 mm | - | - | - |
| 1777531243 | 5.56° C | 30% | 1029.7 hPa | 0 mm | - | - | - |
| 1777530643 | 5.56° C | 30% | 1029.6 hPa | 0 mm | - | - | - |
| 1777530042 | 5° C | 30% | 1029.4 hPa | 0 mm | - | - | - |
| 1777529442 | 5.56° C | 30% | 1029.5 hPa | 0 mm | - | - | - |
| 1777528842 | 5° C | 30% | 1029.3 hPa | 0 mm | - | - | - |
| 1777528242 | 5° C | 30% | 1029.3 hPa | 0 mm | - | - | - |
| 1777527641 | 4.44° C | 30% | 1029.3 hPa | 0 mm | - | - | - |
| 1777527041 | 4.44° C | 30% | 1029.3 hPa | 0 mm | - | - | - |
| 1777526441 | 3.89° C | 31% | 1029.3 hPa | 0 mm | - | - | - |
| 1777525840 | 4.44° C | 30% | 1029.3 hPa | 0 mm | - | - | - |
| 1777525240 | 3.33° C | 31% | 1029.1 hPa | 0 mm | - | - | - |
| 1777524640 | 3.33° C | 31% | 1029 hPa | 0 mm | - | - | - |
| 1777524039 | 3.33° C | 31% | 1029.1 hPa | 0 mm | - | - | - |
* Rain latest hour (hover to see other rain measurements)
** Current wind speed in m/s (hover to see current wind gust speed)